Location: Waldport
(44.4270°N, 124.0680°W)
Time: 21:57:29
(UTC-08:00)

Aureole 3 Rocket - Pass Details

Date: 23 June 2018
Orbit: 398 x 1743 km, 82.5° (Epoch: 19 November)

Event Time Altitude Azimuth Distance (km) Brightness Sun altitude
Exits shadow 23:10:57 21° 168° (SSE) 2,435 5.5 -16.1°
Maximum altitude 23:16:00 60° 96° (E) 1,149 4.2 -16.6°
Drops below altitude 10° 23:21:21 10° 17° (NNE) 2,386 6.7 -17.0°
Sets 23:23:23 0° 14° (NNE) 3,156 7.5 -17.2°
